Independence, KS

4:56 AM CDT on March 30, 2017 (GMT -0500)
Independence Municipal

Weather History for KIDP - October, 2012

Change the Weather History Date:

Friday, October 19, 2012

  Actual Average (KCFV) Record (KCFV)
Temperature  
Mean Temperature 52 °F -  
Max Temperature 62 °F 68 °F 89 °F (2005)
Min Temperature 41 °F 45 °F 33 °F (2013)
Degree Days  
Heating Degree Days 14    
Growing Degree Days 2 (Base 50)    
Moisture  
Dew Point 34 °F    
Average Humidity 49    
Maximum Humidity 93    
Minimum Humidity 34    
Precipitation  
Precipitation 0.00 in - - ()
Sea Level Pressure  
Sea Level Pressure 29.84 in    
Wind  
Wind Speed 12 mph (WNW)    
Max Wind Speed 24 mph    
Max Gust Speed 31 mph    
Visibility 10 miles    
Events      
Averages and records for this station are not official NWS values.
T = Trace of Precipitation, MM = Missing Value Source: NWS Daily Summary

Daily Weather History Graph

Daily Weather History Graph

Search for Another Location

Airport or City:

Trip Planner

Search our weather history database for the weather conditions in past years. The results will help you decide how hot, cold, wet, or windy it might be!

Date:

Astronomy

Oct. 19, 2012 Rise Set
Actual Time 7:35 AM CDT 6:40 PM CDT
Civil Twilight 7:08 AM CDT 7:06 PM CDT
Nautical Twilight 6:38 AM CDT 7:36 PM CDT
Astronomical Twilight 6:08 AM CDT 8:06 PM CDT
Moon 12:14 PM CDT (10/19) 10:24 PM CDT (10/19)
Length of Visible Light 11h 57m
Length of Day
11h 05m
Waxing Crescent, 24% of the Moon is Illuminated
Oct 19
Waxing Crescent
Oct 21
First Quarter
Oct 29
Full
Nov 6
Last Quarter
Nov 13
New

Hourly Weather History & Observations

Time (CDT) Temp. Windchill Dew Point Humidity Pressure Visibility Wind Dir Wind Speed Gust Speed Precip Events Conditions
1:15 AM 53.6 °F - 28.4 °F 38% 29.79 in 10.0 mi West 13.8 mph 17.3 mph N/A   Clear
1:35 AM 53.6 °F - 30.2 °F 41% 29.79 in 10.0 mi WNW 10.4 mph - N/A   Clear
1:55 AM 53.6 °F - 30.2 °F 41% 29.79 in 10.0 mi WNW 9.2 mph - N/A   Clear
2:15 AM 51.8 °F - 30.2 °F 44% 29.80 in 10.0 mi WNW 11.5 mph - N/A   Clear
2:35 AM 53.6 °F - 30.2 °F 41% 29.79 in 10.0 mi WNW 13.8 mph 19.6 mph N/A   Clear
2:55 AM 53.6 °F - 30.2 °F 41% 29.79 in 10.0 mi WNW 12.7 mph 21.9 mph N/A   Clear
3:15 AM 53.6 °F - 30.2 °F 41% 29.79 in 10.0 mi WNW 15.0 mph 21.9 mph N/A   Clear
3:35 AM 53.6 °F - 30.2 °F 41% 29.78 in 10.0 mi WNW 15.0 mph 18.4 mph N/A   Clear
3:55 AM 53.6 °F - 30.2 °F 41% 29.79 in 10.0 mi WNW 13.8 mph - N/A   Clear
4:15 AM 53.6 °F - 32.0 °F 44% 29.79 in 10.0 mi NW 19.6 mph 25.3 mph N/A   Clear
4:35 AM 51.8 °F - 32.0 °F 47% 29.79 in 10.0 mi WNW 9.2 mph - N/A   Clear
4:55 AM 50.0 °F - 32.0 °F 50% 29.80 in 10.0 mi WNW 8.1 mph - N/A   Clear
5:15 AM 50.0 °F - 32.0 °F 50% 29.80 in 10.0 mi WNW 8.1 mph - N/A   Clear
5:35 AM 48.2 °F - 32.0 °F 54% 29.80 in 10.0 mi WNW 8.1 mph - N/A   Clear
5:55 AM 50.0 °F - 32.0 °F 50% 29.81 in 10.0 mi WNW 11.5 mph - N/A   Clear
6:15 AM 50.0 °F - 32.0 °F 50% 29.81 in 10.0 mi WNW 9.2 mph - N/A   Clear
6:35 AM 50.0 °F - 32.0 °F 50% 29.81 in 10.0 mi WNW 11.5 mph - N/A   Clear
6:55 AM 50.0 °F - 32.0 °F 50% 29.81 in 10.0 mi WNW 15.0 mph - N/A   Clear
7:15 AM 48.2 °F - 32.0 °F 54% 29.82 in 10.0 mi West 9.2 mph - N/A   Clear
7:35 AM 46.4 °F 41.5 °F 32.0 °F 57% 29.82 in 10.0 mi West 10.4 mph - N/A   Clear
7:55 AM 46.4 °F 41.5 °F 32.0 °F 57% 29.83 in 10.0 mi West 10.4 mph - N/A   Clear
8:15 AM 48.2 °F - 32.0 °F 54% 29.84 in 10.0 mi WNW 13.8 mph - N/A   Clear
8:35 AM 50.0 °F - 32.0 °F 50% 29.85 in 10.0 mi WNW 10.4 mph 16.1 mph N/A   Clear
8:55 AM 51.8 °F - 32.0 °F 47% 29.85 in 10.0 mi West 11.5 mph - N/A   Clear
9:15 AM 51.8 °F - 30.2 °F 44% 29.86 in 10.0 mi WNW 17.3 mph 21.9 mph N/A   Clear
9:35 AM 51.8 °F - 32.0 °F 47% 29.86 in 10.0 mi WNW 19.6 mph 27.6 mph N/A   Clear
9:55 AM 53.6 °F - 32.0 °F 44% 29.87 in 10.0 mi NW 21.9 mph 27.6 mph N/A   Clear
10:15 AM 53.6 °F - 32.0 °F 44% 29.87 in 10.0 mi NW 21.9 mph 28.8 mph N/A   Clear
10:35 AM 53.6 °F - 32.0 °F 44% 29.87 in 10.0 mi WNW 24.2 mph 31.1 mph N/A   Clear
10:55 AM 55.4 °F - 32.0 °F 41% 29.88 in 10.0 mi NW 21.9 mph 25.3 mph N/A   Clear
11:15 AM 55.4 °F - 32.0 °F 41% 29.89 in 10.0 mi NW 17.3 mph 26.5 mph N/A   Clear
11:35 AM 55.4 °F - 32.0 °F 41% 29.89 in 10.0 mi NW 17.3 mph 24.2 mph N/A   Clear
11:55 AM 55.4 °F - 33.8 °F 44% 29.89 in 10.0 mi NNW 17.3 mph 25.3 mph N/A   Clear
12:15 PM 57.2 °F - 32.0 °F 38% 29.89 in 10.0 mi NNW 18.4 mph 25.3 mph N/A   Clear
12:35 PM 59.0 °F - 32.0 °F 36% 29.89 in 10.0 mi WNW 13.8 mph 17.3 mph N/A   Clear
12:55 PM 59.0 °F - 33.8 °F 39% 29.89 in 10.0 mi WNW 16.1 mph 21.9 mph N/A   Clear
1:15 PM 59.0 °F - 32.0 °F 36% 29.88 in 10.0 mi WNW 15.0 mph 18.4 mph N/A   Clear
1:35 PM 60.8 °F - 33.8 °F 36% 29.87 in 10.0 mi WNW 15.0 mph 19.6 mph N/A   Clear
1:55 PM 60.8 °F - 33.8 °F 36% 29.86 in 10.0 mi NNW 15.0 mph 20.7 mph N/A   Clear
2:15 PM 60.8 °F - 33.8 °F 36% 29.86 in 10.0 mi NW 16.1 mph 23.0 mph N/A   Clear
2:35 PM 60.8 °F - 33.8 °F 36% 29.86 in 10.0 mi WNW 12.7 mph 23.0 mph N/A   Clear
2:55 PM 62.6 °F - 33.8 °F 34% 29.85 in 10.0 mi WNW 12.7 mph 24.2 mph N/A   Clear
3:15 PM 62.6 °F - 35.6 °F 37% 29.84 in 10.0 mi NW 15.0 mph 21.9 mph N/A   Clear
3:35 PM 62.6 °F - 35.6 °F 37% 29.84 in 10.0 mi WNW 16.1 mph - N/A   Clear
3:55 PM 62.6 °F - 33.8 °F 34% 29.84 in 10.0 mi NW 13.8 mph 19.6 mph N/A   Clear
4:15 PM 62.6 °F - 35.6 °F 37% 29.84 in 10.0 mi West 13.8 mph 19.6 mph N/A   Clear
4:35 PM 62.6 °F - 33.8 °F 34% 29.84 in 10.0 mi WNW 16.1 mph 20.7 mph N/A   Clear
4:55 PM 62.6 °F - 33.8 °F 34% 29.84 in 10.0 mi WNW 13.8 mph - N/A   Clear
5:15 PM 62.6 °F - 33.8 °F 34% 29.83 in 10.0 mi NW 10.4 mph - N/A   Clear
5:35 PM 62.6 °F - 33.8 °F 34% 29.83 in 10.0 mi WNW 13.8 mph - N/A   Clear
5:55 PM 62.6 °F - 33.8 °F 34% 29.83 in 10.0 mi WNW 10.4 mph - N/A   Clear
6:15 PM 60.8 °F - 35.6 °F 39% 29.83 in 10.0 mi WNW 5.8 mph - N/A   Clear
6:35 PM 59.0 °F - 35.6 °F 42% 29.83 in 10.0 mi Calm Calm - N/A   Clear
6:55 PM 59.0 °F - 35.6 °F 42% 29.83 in 10.0 mi Calm Calm - N/A   Clear
7:15 PM 57.2 °F - 35.6 °F 44% 29.84 in 10.0 mi Calm Calm - N/A   Clear
7:35 PM 53.6 °F - 37.4 °F 54% 29.85 in 10.0 mi Calm Calm - N/A   Clear
7:55 PM 51.8 °F - 41.0 °F 67% 29.85 in 10.0 mi Calm Calm - N/A   Clear
8:15 PM 50.0 °F - 39.2 °F 66% 29.86 in 10.0 mi Calm Calm - N/A   Clear
8:35 PM 50.0 °F - 37.4 °F 62% 29.86 in 10.0 mi Calm Calm - N/A   Clear
8:55 PM 51.8 °F - 37.4 °F 58% 29.85 in 10.0 mi Calm Calm - N/A   Clear
9:15 PM 50.0 °F - 37.4 °F 62% 29.86 in 10.0 mi Calm Calm - N/A   Clear
9:35 PM 46.4 °F - 39.2 °F 76% 29.85 in 10.0 mi Calm Calm - N/A   Clear
9:55 PM 46.4 °F - 39.2 °F 76% 29.85 in 10.0 mi Calm Calm - N/A   Clear
10:15 PM 44.6 °F - 41.0 °F 87% 29.85 in 10.0 mi Calm Calm - N/A   Clear
10:35 PM 44.6 °F - 41.0 °F 87% 29.85 in 10.0 mi Calm Calm - N/A   Clear
10:55 PM 44.6 °F - 39.2 °F 81% 29.85 in 10.0 mi Calm Calm - N/A   Clear
11:15 PM 41.0 °F 38.0 °F 37.4 °F 87% 29.85 in 10.0 mi SW 4.6 mph - N/A   Clear
11:35 PM 41.0 °F - 39.2 °F 93% 29.85 in 10.0 mi Calm Calm - N/A   Clear
11:55 PM 42.8 °F - 39.2 °F 87% 29.85 in 10.0 mi Calm Calm - N/A   Clear